ARIANE 42P DEB *, 47108

Orbit data source: Space-Track

ARIANE 42P DEB *, 47108 is space debris in LEO originally from a launch on Mon, 10 Aug 1992 UTC launched from the French Guiana (FRGUI). Debris objects in space refer to the collection of defunct objects orbiting the Earth. Examples of debris include non-operational satellites, rocket bodies, and fragments generated from explosions, collisions, or faulty payload assembly.

Loading next visibility...
Identifier
47108, 1992-052P
Orbit
LEO
Country
Flag of FRFR
Related business
Manufacturer
ArianeGroup
Mission
Spacecraft
Bus & Motor
Unknown
Mass
Unknown
Launch date (UTC)
1992-08-10 (33 years ago)
Launch vehicle
Unknown
Launch site
French Guiana (FRGUI)
Object type
Payload
Rocket body
Debris
Shape & HBR
Unknown shape, 0.1 m
Radar Cross Section
Small (<0.1 m²)

Expand to show TLE details & history
Last TLE update: 2 days ago

TLE from 2 days ago
0 ARIANE 42P DEB *
1 47108U 92052P   25307.74444965  .00000884  00000-0  49545-3 0  9998
2 47108  65.8131 109.4542 1170410  18.3723 345.6086 12.43894994 71169
Epoch: 2025-11-03T17:52Z
TLE epoch observation values (Epoch: 2025-11-03T17:52:00.449Z)
Latitude
-0.00004°
Longitude
158.21088°
Altitude
607.876 km
Speed
7.969 km/s
True Right ascension
07h 17m 49s
True Declination
0° 00' 00"
Sunlit
Object was in daylight at epoch
Visualization orbit readout
Latitude
Unknown
Longitude
Unknown
Altitude
Unknown
Speed
Unknown
Apparent Right ascension
Unknown
Apparent Declination
Unknown
Sunlit
N/A
Visualization observer readout
Local Sidereal Time
03:31:32
Azimuth
Unknown
Elevation
Unknown
Doppler factor
Unknown
Orbital elements
Apogee altitude
2,409.467 km
Perigee altitude
567.977 km
Semi-major axis
7,866.859 km
Eccentricity
0.11704
Inclination
65.8131°
RAAN
109.4542°
Arg. of periapsis
18.3723°
True anomaly
341.73212°
Mean anomaly
345.6086°
Eccentric anomaly
343.72981°
Mean motion
3.11058 °/min
Orbital period
115.73 mins
BSTAR
0.00049545
Loading maneuver chart data...
Computing Atmospheric mass density...
Loading historical data...
Loading historical data...
Loading historical data...
Loading historical data...
Loading historical data...
Loading historical data...
Loading historical data...

Documentation

Showing up to 5 results
|